IRNSS-1C (40269 NORAD) Tracking and Keplerian Element Data

This shows tracking and keplerian element data for the satellite.

Feedback or suggestion? Click here.




ElementValue
Catalog40269
NameIRNSS-1C
Epoch Orbit1649
Epoch Day113.54988648
Epoch Year2019
RAAN212.6542
Inclination1.9932
Eccentricity0.0017864
Argument of Perigee9.7384
Mean Anonmoly269.9788
Mean Motion1.00270526
Decay Rate-1.77E-06
L11 40269U 14061A 19113.54988648 -.00000177 00000-0 00000-0 0 9996
L22 40269 1.9932 212.6542 0017864 9.7384 269.9788 1.00270526 16498

Live tracking and technical data element details for IRNSS-1C (NORAD 40269). IRNSS-1C can be tracked NOW for your location showing map with azimuth and elevation plus other details from your city location.

Track the satellite on the map from your city or location and see movement details for azimuth, elevation, latitude, longitude, range, height, and movement on the map or in text.







IsCatalogInMostPopularTable: catalog: 40269, numindb: 200
Update: records affected: 1



GetName: 40269 IRNSS-1C

Hit Count: updated at: Thu, 25 Apr 2019 19:48:53 GMT